Snowfall_Accumulation
0.0 0.0 0.0 0.0 0.0 0.0 0.0 0.0 0.0 0.0 0.0 0.0 0.0 0.0 0.0 0.0 0.0 0.0 0.0 0.0 2.6 15.3 0.6 0.0 0.0 1.7 1.7 2.8 7.3 4.2 7.7 3.5 6.3 11.0 8.2 7.4 6.6 5.2 2.8 0.1 2.5 6.7 4.0 3.5 3.5 8.3 3.5 0.0 0.0 1.7 3.5 0.8 3.9 6.1
0.0 0.0 0.0 0.0 0.0 0.0 0.0 0.0 0.0 0.0 0.0 0.0 0.0 0.0 0.0 0.0 0.0 0.0 0.3 0.0 0.0 5.4 4.3 0.3 0.1 0.0 0.3 1.2 4.2 3.8 6.9 4.6 5.3 10.1 11.5 10.1 9.3 6.4 1.5 3.3 0.2 11.1 6.5 5.0 1.5 0.4 0.0 0.0 0.0 0.0 0.0 1.5 1.5 6.1
0.0 0.0 0.0 0.0 0.0 0.0 0.0 0.0 0.0 0.0 0.0 0.0 0.0 0.0 0.0 0.0 0.0 0.0 0.0 0.0 0.7 10.5 5.5 2.8 2.2 0.3 0.0 0.0 1.0 8.7 3.1 6.2 7.1 8.6 17.6 9.4 13.1 5.6 5.9 3.5 2.5 1.4 0.7 1.6 0.1 0.0 0.0 0.0 0.0 0.0 0.0 0.6 0.4 2.8
0.0 0.0 0.0 0.0 0.0 0.0 0.0 0.0 0.0 0.0 0.0 0.0 0.0 0.0 0.0 0.0 0.0 0.0 0.0 0.0 1.5 10.1 14.9 3.5 0.0 0.9 0.1 0.0 0.8 1.0 2.9 3.8 9.6 11.6 27.6 24.6 14.8 5.8 5.8 5.3 4.6 2.2 0.1 0.4 0.4 0.0 0.2 0.0 0.0 0.1 0.1 0.1 0.2 0.2
0.0 0.0 0.0 0.0 0.0 0.0 0.0 0.0 0.0 0.0 0.0 0.0 0.0 0.0 0.0 0.0 0.0 0.0 0.0 0.0 0.0 8.8 10.9 3.2 1.1 1.1 0.4 0.1 1.7 3.9 8.0 12.5 23.5 33.8 35.1 26.8 9.9 10.8 5.4 9.1 7.7 2.4 2.9 2.2 0.3 0.0 0.9 0.2 0.1 0.0 0.8 1.1 1.2 2.4
0.0 0.0 0.0 0.0 0.0 0.0 0.0 0.0 0.0 0.0 0.0 0.0 0.0 0.0 0.0 0.0 0.0 0.7 3.8 1.8 1.3 3.2 12.7 13.6 2.1 2.2 1.7 1.9 5.3 8.2 9.0 14.2 17.2 19.2 23.5 17.3 10.6 15.7 17.2 11.5 4.6 2.3 1.0 1.8 2.4 0.0 0.2 0.2 0.1 0.3 1.6 0.9 2.0 2.5
0.0 0.0 0.0 0.0 0.0 0.0 0.0 0.0 0.0 0.0 0.0 0.0 0.0 0.0 0.0 0.0 0.0 3.2 3.7 1.7 1.0 2.1 10.4 23.6 7.5 3.5 3.3 3.5 4.8 7.7 7.5 9.8 12.4 14.6 15.7 12.9 11.4 9.9 13.1 9.9 6.5 3.7 2.0 0.8 0.1 1.6 1.1 0.3 1.6 0.5 1.3 1.2 1.6 2.3
0.0 0.0 0.0 0.0 0.0 0.0 0.0 0.0 0.0 0.0 0.0 0.0 0.0 0.0 0.0 0.0 0.0 2.9 1.0 0.0 1.5 5.3 8.4 28.7 12.6 5.1 2.4 4.7 7.7 3.5 9.5 7.6 10.3 11.0 10.9 10.4 9.2 9.2 20.7 12.3 10.1 7.1 4.1 2.7 1.9 1.5 2.6 1.9 1.2 1.3 1.3 1.3 1.5 3.4
0.0 0.0 0.0 0.0 0.0 0.0 0.0 0.0 0.0 0.0 0.0 0.0 0.0 0.0 0.0 8.2 11.1 8.3 0.0 0.0 1.4 6.9 30.9 18.2 9.1 9.1 2.6 4.1 6.7 9.0 8.5 15.3 8.3 14.9 10.7 5.4 9.5 22.6 20.2 15.2 11.8 10.4 7.8 8.2 3.5 3.3 3.4 3.2 3.7 3.4 3.0 2.9 3.2 5.7
0.0 0.0 0.0 0.0 0.0 0.0 0.0 0.0 0.0 0.0 0.0 0.0 0.0 14.2 47.1 18.0 0.0 0.1 11.0 19.9 27.7 23.8 21.0 18.3 1.5 6.2 3.0 4.0 8.5 10.5 9.0 10.8 17.8 10.3 4.2 11.4 22.5 21.3 20.1 17.7 16.2 14.8 13.8 9.8 6.6 8.8 5.6 5.8 6.4 6.8 7.7 7.6 7.7 9.0
0.0 0.0 0.0 0.0 0.0 0.0 0.0 0.0 0.0 0.0 0.0 0.5 28.1 43.3 22.4 0.5 11.8 20.3 49.1 47.6 28.0 27.6 8.7 5.6 3.9 6.5 3.3 9.9 9.7 9.9 17.4 11.2 21.5 7.1 4.1 12.3 20.6 27.7 20.3 17.6 17.3 16.3 15.2 15.3 12.5 12.3 9.1 9.6 10.1 7.6 7.4 7.5 7.6 7.1
0.0 0.0 0.0 0.0 0.0 0.0 0.0 0.0 0.0 0.3 12.4 3.7 11.8 12.4 19.4 33.7 44.4 55.1 49.4 23.7 15.5 4.5 2.7 4.9 5.9 5.3 4.4 4.5 15.0 17.5 24.4 22.7 19.9 4.5 9.9 17.7 26.3 23.6 17.8 19.3 18.8 17.1 14.6 16.5 12.3 11.9 10.9 9.9 8.3 7.7 7.9 8.2 8.1 8.4
0.0 0.0 0.0 0.0 0.0 0.0 0.0 0.0 0.0 0.0 0.1 15.9 47.2 80.1 71.3 66.7 66.5 46.1 25.2 9.8 4.1 3.0 3.6 6.2 6.1 2.6 3.0 7.6 19.9 23.3 24.3 17.0 5.7 10.8 9.6 17.9 19.9 16.9 16.8 14.6 15.5 15.4 13.9 13.6 12.6 12.4 10.2 9.5 7.0 5.9 7.2 9.5 7.3 6.0
0.0 0.0 0.0 0.0 0.0 0.0 0.0 0.0 0.0 0.0 6.1 66.7 102.2 114.7 65.4 54.2 22.5 12.2 7.6 5.7 4.9 5.2 3.9 2.6 2.5 4.0 3.9 14.8 19.0 24.7 12.8 10.9 11.8 7.5 9.9 13.6 11.6 10.0 9.0 10.5 8.8 9.9 8.0 7.0 8.1 7.3 5.3 3.2 3.5 3.1 2.9 2.4 1.7 1.5
0.0 0.0 0.0 0.0 0.0 0.0 0.0 0.0 0.0 0.3 26.8 102.4 77.4 67.0 41.0 14.4 9.7 6.9 4.7 4.0 2.0 1.5 2.2 1.1 2.5 7.4 11.2 23.8 17.4 12.4 18.1 6.4 2.7 5.4 7.2 7.7 5.7 4.0 3.4 3.6 5.3 4.2 2.9 1.6 1.3 1.0 1.1 1.5 1.4 1.5 1.7 1.4 1.0 0.9
0.0 0.0 0.0 0.0 0.0 0.0 0.3 0.0 7.0 26.1 98.5 100.9 72.5 39.9 12.4 3.6 3.8 2.0 1.5 1.8 0.7 0.5 1.7 7.1 17.6 26.1 20.0 16.5 17.0 7.9 8.7 6.6 5.8 4.5 4.5 2.7 0.5 0.6 0.5 1.5 2.2 1.0 1.0 1.4 1.0 0.4 0.9 0.9 0.7 1.0 1.2 1.3 1.3 1.3
0.0 1.7 0.0 0.0 0.0 0.0 0.0 3.1 51.2 111.3 120.2 104.3 48.6 14.2 7.5 5.7 5.8 2.9 1.3 1.2 0.6 4.1 9.6 18.3 28.3 18.4 10.9 13.4 6.6 2.8 5.4 5.0 2.6 3.0 1.0 0.0 0.0 0.0 0.5 0.9 1.7 0.8 1.3 1.7 2.0 1.2 0.7 0.5 0.4 0.5 0.9 1.2 1.5 1.5
0.7 0.0 0.0 0.0 0.5 8.1 22.4 51.3 92.5 116.5 105.3 40.4 15.3 7.2 4.6 4.2 4.2 3.3 2.6 2.5 4.3 9.3 12.4 18.2 15.8 21.4 17.5 11.7 7.9 8.2 6.6 4.1 1.0 0.5 0.0 0.0 0.0 0.0 0.0 1.0 1.7 1.8 1.8 1.4 0.8 1.0 0.9 0.6 0.6 1.0 1.0 1.7 1.7 1.5
0.1 0.1 0.0 0.0 0.2 26.8 103.0 115.1 74.7 81.1 35.5 10.3 6.6 5.5 4.8 3.7 1.7 2.6 3.4 4.4 5.3 6.7 12.3 22.1 30.0 21.2 8.1 9.6 10.0 6.0 3.0 0.6 0.2 0.1 0.1 0.1 0.5 0.8 0.9 1.0 0.9 1.8 2.2 2.1 1.7 1.2 0.8 0.5 0.8 1.8 2.0 2.0 2.6 2.3
0.0 0.0 0.5 1.3 0.5 85.0 112.2 93.6 46.1 32.7 19.3 11.5 7.7 9.0 9.1 6.8 4.3 5.8 7.6 7.9 8.6 14.0 22.1 26.2 10.6 7.2 7.6 8.1 6.1 3.3 1.5 0.3 0.4 0.5 0.2 0.1 1.4 1.5 1.5 1.2 0.8 1.8 1.6 1.4 1.1 0.9 0.9 1.5 0.7 0.2 1.6 2.5 3.9 3.3
4.8 9.2 8.4 4.2 48.3 76.9 76.3 50.2 36.3 25.1 16.6 12.9 14.5 12.3 15.1 10.8 9.3 8.4 10.1 7.7 17.6 21.9 18.3 11.8 9.2 7.8 6.5 4.3 1.4 0.8 0.7 0.7 0.6 0.4 0.7 2.3 1.7 1.2 0.8 1.3 1.0 1.0 0.9 0.9 0.7 1.2 0.8 1.4 1.2 1.0 1.4 2.2 1.5 2.5
12.5 4.8 26.1 29.3 89.8 86.7 66.9 38.8 25.6 18.4 12.5 16.2 17.0 15.1 17.8 17.5 16.9 16.0 13.1 22.5 24.6 12.3 10.0 9.4 6.4 4.8 3.3 1.7 1.2 1.5 0.7 1.0 0.5 0.2 0.7 0.9 1.1 0.7 0.5 1.3 1.1 1.8 1.6 1.1 1.7 2.3 1.2 0.8 2.1 2.9 2.3 1.9 2.5 2.8
3.6 12.1 49.8 68.7 85.7 62.5 54.0 27.6 24.7 22.4 24.9 28.3 23.6 22.4 24.5 19.7 19.8 16.5 27.7 16.6 11.8 9.9 7.8 6.2 4.6 4.1 2.9 2.8 1.9 1.1 0.7 0.7 0.7 0.7 0.8 0.1 0.6 0.4 0.3 1.7 1.6 4.2 3.4 1.1 0.5 3.3 3.1 1.7 1.7 4.1 3.0 2.6 3.0 3.4
8.4 61.4 82.2 74.1 52.9 44.4 26.0 22.1 16.3 13.2 19.6 21.0 21.2 21.0 14.8 15.2 18.4 23.5 16.9 7.4 8.1 7.5 5.7 5.4 4.3 2.7 2.9 2.4 2.5 1.6 1.4 0.8 1.5 1.3 1.5 1.4 1.4 0.7 0.4 2.0 2.0 1.6 2.0 2.5 3.5 3.7 3.3 4.0 3.7 4.5 4.3 5.2 4.9 6.8
92.0 96.3 59.7 51.7 25.1 13.1 7.9 10.5 11.3 11.2 9.0 11.4 12.3 15.4 11.8 14.1 19.5 15.9 7.5 6.9 7.8 8.1 6.5 4.7 3.9 3.9 2.7 3.3 2.2 3.0 2.9 3.8 4.4 2.8 1.3 2.4 4.9 5.0 2.3 2.0 1.2 1.3 3.7 7.6 5.7 4.7 3.9 5.8 6.6 5.5 4.8 6.5 7.0 6.7
67.3 35.4 29.9 10.1 4.7 2.3 3.2 4.1 5.8 5.5 5.7 9.4 12.6 12.4 12.2 14.9 13.7 9.7 5.6 6.5 7.6 8.6 8.7 7.4 5.3 3.6 4.4 3.8 5.8 4.7 3.6 3.7 5.6 7.3 4.0 4.1 5.4 8.3 6.3 3.8 2.9 3.0 2.5 10.5 15.1 13.0 8.8 6.7 8.8 7.2 7.6 5.5 6.9 10.6
32.5 14.3 6.3 1.5 2.0 2.9 2.7 2.8 2.3 3.7 8.2 8.9 6.3 5.9 10.5 17.3 7.5 4.0 3.5 4.7 6.6 7.8 8.2 7.9 7.2 6.2 5.4 5.5 5.9 6.3 6.6 7.3 7.7 4.4 5.6 6.3 5.9 4.9 8.2 14.9 12.1 3.4 6.2 12.3 14.1 14.7 14.9 11.0 10.4 10.2 10.3 8.2 7.9 8.2
4.9 0.4 1.3 1.3 1.4 2.1 2.6 3.4 3.7 3.5 4.7 3.5 4.3 5.1 6.2 3.9 1.6 2.0 3.0 3.8 6.7 8.2 9.2 9.8 9.0 7.4 7.7 7.5 8.3 11.3 12.5 10.6 10.3 9.0 8.0 7.1 6.4 9.3 10.0 11.5 12.1 12.4 14.9 14.7 19.3 18.0 16.0 14.8 14.2 12.3 11.6 10.0 6.5 7.0
2.4 0.5 0.5 3.5 5.8 7.0 6.8 5.1 3.8 2.5 2.1 2.1 4.3 4.9 3.8 2.7 2.6 2.6 4.0 6.2 7.9 8.5 9.7 10.3 10.9 10.9 12.8 12.5 12.9 13.3 14.3 14.2 14.6 10.9 5.3 5.4 5.8 8.1 12.9 14.2 14.0 15.6 14.7 14.4 10.6 14.5 16.2 17.1 16.1 14.7 11.6 9.9 8.0 9.5
2.1 2.9 4.3 5.5 5.2 3.8 3.7 2.9 3.1 3.1 5.7 7.6 6.5 6.5 4.8 4.7 5.5 5.2 4.3 4.5 6.8 9.4 12.1 13.1 14.2 16.6 15.2 13.6 14.6 15.4 18.0 18.6 17.7 17.7 14.9 7.9 7.1 8.4 12.8 16.7 16.9 14.4 15.2 16.6 15.7 14.5 11.4 12.8 11.4 13.2 13.0 11.8 11.3 11.8
4.8 6.2 5.6 5.1 4.1 3.1 5.4 7.8 9.6 9.7 9.4 8.8 8.0 7.5 6.6 5.1 4.9 4.0 3.4 4.4 5.6 8.9 12.4 14.2 15.4 17.6 17.6 14.8 15.7 15.7 15.4 15.2 16.0 16.2 16.6 18.5 16.3 16.8 18.0 19.6 18.6 18.5 17.8 17.4 15.1 14.8 14.0 11.4 9.7 10.5 10.1 10.1 10.5 9.0
6.0 7.0 6.6 5.9 4.8 6.9 9.0 9.1 8.5 7.3 6.9 6.2 5.8 5.0 5.8 5.1 4.1 3.1 2.5 4.2 6.1 9.4 12.8 15.1 15.8 15.2 14.5 15.6 14.5 15.1 14.2 14.6 13.6 15.1 17.2 19.1 16.6 14.0 16.3 17.0 16.2 16.4 16.9 17.8 16.1 15.9 15.2 13.9 14.8 14.2 13.7 12.6 11.6 10.4
8.5 8.1 7.6 8.1 8.5 7.3 7.4 6.9 7.4 6.9 5.4 5.0 4.5 4.1 4.1 4.5 5.1 4.1 4.0 6.0 8.7 10.5 10.7 10.4 11.7 14.2 14.4 13.4 13.1 13.8 13.1 16.1 15.4 14.6 16.0 16.3 15.9 16.5 18.8 15.5 14.0 14.9 15.3 16.5 17.4 16.7 17.3 16.6 14.8 13.4 13.4 12.8 12.8 12.3